Regional Weather Roundup
Issued by NWS

Home | Current Version | Previous Version | Graphics & Text | Print | Product List | Glossary On
Versions: 1 2 3 4 5 6 7 8 9 10 11 12 13 14 15 16 17 18 19 20 21 22 23 24 25 26 27 28 29 30 31 32 33 34 35 36 37 38 39 40 41 42 43 44 45 46 47 48 49 50
000
ASUS43 KMPX 312110
RWRMN
WEATHER ROUNDUP FOR MINNESOTA
NATIONAL WEATHER SERVICE TWIN CITIES/CHANHASSEN MN
400 PM CDT THU JUL 31 2014


NOTE: "FAIR" INDICATES FEW OR NO CLOUDS BELOW 12,000 FEET WITH NO
SIGNIFICANT WEATHER AND/OR OBSTRUCTIONS TO VISIBILITY. N/A MEANS
CURRENT SKY AND/OR WEATHER CONDITIONS ARE NOT AVAILABLE.

MNZ060>063-068>070-312200-
   Twin Cities Metro

CITY           SKY/WX    TMP DP  RH WIND       PRES   REMARKS
TWIN CITIES    MOSUNNY   83  50  31 NW8       30.01F
ST PAUL        MOSUNNY   82  54  37 W6        30.00F
CRYSTAL        SUNNY     83  54  36 W10       30.00S
BLAINE         MOSUNNY   82  57  42 W10       30.01S
LAKEVILLE      SUNNY     79  57  47 W5        30.02S
EDEN PRAIRIE   SUNNY     84  55  36 NW7       30.01S
SOUTH ST PAUL  SUNNY     82  50  33 W7        30.00F
LAKE ELMO      FAIR      81  59  47 NW7       30.02S
$$
MNZ001>005-007-008-013>017-022>024-027-028-312200-
   Northwest Minnesota

CITY           SKY/WX    TMP DP  RH WIND       PRES   REMARKS
BEMIDJI        SUNNY     78  58  50 N9        30.02R
HALLOCK        SUNNY     81  61  50 N7        30.00S
ROSEAU           N/A     81  59  47 CALM      30.01R
WARROAD        SUNNY     79  61  53 CALM      30.01S
THIEF RVR FALL MOSUNNY   79  59  50 NW12      30.02S
CROOKSTON      SUNNY     81  61  50 NW6       30.02S
FOSSTON        MOSUNNY   81  57  44 NW6       30.03S
DETROIT LAKES  SUNNY     81  55  41 NW8       30.05S
MOORHEAD       SUNNY     81  61  50 N7        30.03S
PARK RAPIDS    MOSUNNY   80  57  45 NW12      30.02S
$$
MNZ006-009>011-018-025>026-312200-
   North Central Minnesota

CITY           SKY/WX    TMP DP  RH WIND       PRES   REMARKS
BAUDETTE         N/A     78  54  43 VRB6      30.01S
FLAG ISLAND    SUNNY     77  55  47 N7        29.98F
INTL FALLS     SUNNY     77  55  46 NE8       29.98F
WASKISH        SUNNY     79  59  50 CALM      30.00S
BIG FORK       SUNNY    N/A N/A N/A NW2       30.00S
LONGVILLE      SUNNY     79  61  53 N3        30.01S
GRAND RAPIDS   MOSUNNY   79  55  44 NW10      30.00S
CRANE LAKE     SUNNY     73  50  43 NW6       29.99S
ORR            SUNNY     77  48  36 NW7       29.97S
COOK           SUNNY     75  52  43 W7        29.99S
$$
MNZ012-019>021-037-312200-
   Northeast Minnesota

CITY           SKY/WX    TMP DP  RH WIND       PRES   REMARKS
DULUTH         MOSUNNY   80  53  39 NW10      29.98S
ELY            SUNNY     73  50  43 W9        29.98R
HIBBING        SUNNY     79  53  40 N10       29.99S
EVELETH        SUNNY    N/A N/A N/A W12       30.00R
DULUTH HARBOR  MOSUNNY   79  61  53 E3        29.95S
TWO HARBORS    MOSUNNY   79  54  41 NW5       29.94S
SILVER BAY     SUNNY     77  57  50 W7        29.94R
GRAND MARAIS     N/A     59  51  75 SW5       29.93S
G MARAIS ARPRT SUNNY     72  45  37 W8        29.98S
$$
MNZ029>031-032-039>041-046>048-054>057-064-312200-
   West Central Minnesota

CITY           SKY/WX    TMP DP  RH WIND       PRES   REMARKS
FERGUS FALLS   SUNNY     81  54  39 W3        30.02S
WHEATON        SUNNY     79  57  47 N5        30.05F
MORRIS         SUNNY     82  57  42 NW8       30.03F
ALEXANDRIA     SUNNY     79  55  43 NW8       30.06S
ELBOW LAKE     FAIR      78  58  50 NW5       30.04S
WADENA         SUNNY     79  59  50 W9        30.03S
GLENWOOD       SUNNY     81  52  36 NW6       30.06S
APPLETON       SUNNY     82  52  34 W6        30.04S
BENSON         SUNNY     81  57  44 N6        30.04S
ORTONVILLE     SUNNY     81  54  39 NW7       30.04F
MADISON        SUNNY     81  55  41 NW6       30.05S
WILLMAR        FAIR      81  52  36 NW6       30.05S
$$
MNZ033>034-036-042>043-049>051-058-059-312200-
   Central Minnesota

CITY           SKY/WX    TMP DP  RH WIND       PRES   REMARKS
ST CLOUD       MOSUNNY   84  54  35 W6        30.01F
SAUK CENTRE    MOCLDY    80  55  42 W7        30.04S
PAYNESVILLE    SUNNY     79  51  37 NW6       30.04S
AITKIN         MOSUNNY   82  63  51 CALM      29.99S
PINE RIVER     MOSUNNY   81  59  47 NW9       30.03S
BRAINERD       SUNNY     81  56  42 NW9       30.01S
STAPLES        MOSUNNY   82  55  39 NW7       30.02S
LONG PRAIRIE   FAIR      79  55  44 W6        30.04S
LITTLE FALLS   MOSUNNY   81  52  36 W7        30.02S
LITCHFIELD     MOSUNNY   81  55  41 W7        30.04S
BUFFALO        SUNNY     81  53  37 W7        30.03S
MAPLE LAKE     SUNNY     81  57  43 SW3       30.03F
$$
MNZ037-044-045-052-053-312200-
   East Central Minnesota

CITY           SKY/WX    TMP DP  RH WIND       PRES   REMARKS
PRINCETON      MOSUNNY   84  57  39 W10       30.01S
MORA           SUNNY     77  55  47 NW6       30.01F
CAMBRIDGE      MOSUNNY   84  61  45 W9        29.99S
RUSH CITY      SUNNY     81  61  51 W5        30.00S
MOOSE LAKE     MOSUNNY   79  61  53 NW6       29.97S
HINCKLEY       FAIR      79  61  53 W8        29.99S
CLOQUET        SUNNY     79  52  38 NW12G17   29.98S
MCGREGOR       SUNNY     79  59  50 NW9       30.00R
$$
MNZ071>073-080-081-089-090-097-098-312200-
   Southwest Minnesota

CITY           SKY/WX    TMP DP  RH WIND       PRES   REMARKS
MONTEVIDEO     MOSUNNY   84  57  39 CALM      30.05S
GRANITE FALLS  SUNNY     80  56  44 W5        30.06S
CANBY          PTSUNNY   81  56  42 E5        30.06F
MARSHALL       SUNNY     81  52  36 N5        30.05S
REDWOOD FALLS  MOSUNNY   83  49  30 W7        30.04S
OLIVIA         MOSUNNY   81  54  39 NW5       30.04S
PIPESTONE      MOSUNNY   79  55  44 W7        30.06F
WINDOM         PTSUNNY   79  57  47 W3        30.06S
WORTHINGTON    MOSUNNY   79  57  47 SW5       30.08S
JACKSON        PTSUNNY   77  55  47 NW3       30.07S
TRACY          SUNNY     80  56  43 CALM      30.06S
SLAYTON        PTSUNNY   78  55  45 CALM      30.07S
$$
MNZ065>067-074>077-082>085-091>093-312200-
   South Central Minnesota

CITY           SKY/WX    TMP DP  RH WIND       PRES   REMARKS
MANKATO        SUNNY     81  52  36 W5        30.04S
NEW ULM        MOSUNNY   81  54  39 W7        30.04S
ST JAMES       SUNNY     84  46  26 W3        30.05F
FAIRMONT       PTSUNNY   81  54  39 N5        30.05F
GLENCOE        SUNNY     81  50  34 W6        30.03S
FARIBAULT      SUNNY     84  46  26 W8        30.04S
OWATONNA       MOSUNNY   81  54  39 W7        30.05S
WASECA         SUNNY     77  50  38 W7        30.06F
ALBERT LEA     SUNNY     81  52  36 SW6       30.05F
$$
MNZ078>079-086>088-094>096-312200-
   Southeast Minnesota

CITY           SKY/WX    TMP DP  RH WIND       PRES   REMARKS
ROCHESTER      MOSUNNY   79  57  46 W8        30.06S
RED WING       MOSUNNY   84  52  32 W9        30.00S
STANTON        MOSUNNY   82  55  39 W8        30.01S
DODGE CENTER   MOSUNNY   81  54  39 W12G17    30.05S
WINONA         SUNNY     79  52  38 NW7       30.02S
AUSTIN         SUNNY     79  52  38 W7        30.05S
PRESTON        MOSUNNY   76  61  60 W9        30.06S
$$
ABBREVIATIONS USED IN REMARKS
   TC - TEMPERATURES IN CELSIUS
  WCI - WIND CHILL INDEX
   HX - HEAT INDEX
  VSB - VISIBILITY
$$


USA.gov is the U.S. government's official web portal to all federal, state and local government web resources and services.